Location: Charlottetown
(46.2330°N, 63.1330°W)
Time: 19:22:17
(UTC-03:00)

Daily predictions for brighter satellites

Satellite Brightness Start Highest point End
(mag) Time Altitude Azimuth Time Altitude Azimuth Time Altitude Azimuth
Cosmos 1850 Rocket 4.0 21:37:32 10° SSW 21:42:42 78° ESE 21:47:55 10° NNE
Cosmos 2100 Rocket 4.1 21:39:01 10° N 21:45:22 77° E 21:51:42 10° SSE
ERS-1 Rocket 3.0 21:43:27 10° SSE 21:48:29 82° ENE 21:53:34 10° NNW
SL-08 RB Rocket 4.4 21:44:30 10° SE 21:48:45 40° ENE 21:53:04 10° N
Lacrosse 4 Rocket 3.9 21:45:18 10° WSW 21:49:04 29° NW 21:52:57 10° NNE
Terra 3.6 21:46:24 10° ESE 21:49:40 19° ENE 21:52:55 10° NNE
Cosmos 2061 Rocket 4.1 21:45:53 10° N 21:52:18 73° E 21:58:42 10° SSE
Cosmos 332 Rocket 4.3 21:48:35 10° NNW 21:53:21 49° ENE 21:58:07 10° SE
Cosmos 2173 Rocket 4.0 21:49:08 10° N 21:55:19 82° E 22:01:34 10° S
MetOp-B 4.2 21:54:57 10° SSE 22:00:18 80° ENE 22:05:41 10° NNW
Cosmos 2297 Rocket 3.7 21:55:24 10° SW 22:00:45 43° NW 22:06:10 10° NNE
Cosmos 1356 Rocket 3.5 21:58:14 10° S 22:02:29 84° E 22:06:50 10° NNE
H-2A R/B 2.6 21:58:43 10° SE 22:03:50 48° ENE 22:09:03 10° N
Cosmos 1741 Rocket 4.5 22:02:57 10° SSW 22:08:14 69° WNW 22:13:34 10° NNE
EO 1 Delta rocket 4.2 22:05:15 10° SSE 22:09:45 49° ENE 22:14:17 10° N
Cosmos 2263 Rocket 3.4 22:05:38 10° SSE 22:09:48 22° E 22:13:58 10° NE
YAOGAN 6 4.3 22:06:45 10° SSW 22:10:03 32° W 22:13:25 10° NNW
Cosmos 1626 4.2 22:10:01 10° ESE 22:11:52 14° E 22:13:49 10° NE
Meteor 1-21 Rocket 4.3 22:06:24 10° S 22:12:04 88° W 22:17:41 10° N
ATLAS 5 CENTAUR R/B 2.4 22:09:00 10° SW 22:13:41 65° NW 22:18:52 10° NE
Cosmos 1726 2.1 22:10:19 10° N 22:14:00 68° E 22:17:27 11° SSE
RESURS DK-1 2.4 22:13:04 10° NNW 22:17:15 84° WSW 22:20:58 13° SSE
Cosmos 1300 2.9 22:13:30 10° N 22:17:17 57° ENE 22:20:36 13° SSE
Cosmos 1725 Rocket 4.1 22:12:26 10° N 22:18:41 65° E 22:24:37 11° SSE
Meteor 2-2 Rocket 4.4 22:13:13 10° N 22:19:00 74° ENE 22:24:44 11° SSE
Cosmos 1802 Rocket 4.1 22:13:37 10° NNW 22:19:46 77° W 22:25:54 10° S
Cosmos 1076 Rocket 4.1 22:16:31 10° SSW 22:20:49 59° W 22:25:08 10° N
SL-14 R/B 3.6 22:18:06 10° SSE 22:21:55 47° E 22:25:43 10° NNE
Cosmos 1408 Rocket 3.6 22:19:49 10° S 22:24:07 85° W 22:28:29 10° N
ERBS 2.2 22:27:26 10° NW 22:30:50 80° SW 22:33:11 18° SE
Cosmos 1328 3.9 22:27:13 10° S 22:31:08 60° E 22:35:07 10° NNE
Cosmos 1603 4.0 22:29:57 10° NNW 22:35:33 63° WSW 22:40:30 13° S
Cosmos 2151 3.6 22:34:26 16° SSE 22:37:27 39° E 22:41:30 10° NNE
Cosmos 1356 4.2 22:37:50 19° SSE 22:39:46 34° E 22:42:59 10° NNE
Cosmos 1814 Rocket 4.1 22:34:57 10° NNW 22:40:19 78° WSW 22:44:41 15° SSE
DMSP B5D2-2 4.3 22:35:54 10° NNE 22:41:01 51° E 22:45:23 14° S
Tiangong 1 1.4 22:38:34 10° WSW 22:41:12 37° S 22:42:16 25° SE
Cosmos 371 Rocket 3.4 22:38:31 10° NNW 22:43:21 74° WSW 22:47:09 16° SSE
CZ-4C R/B 4.0 22:43:07 11° ESE 22:43:38 11° ESE 22:45:00 10° E
Cosmos 1500 Rocket 3.7 22:40:57 15° S 22:44:35 58° E 22:48:58 10° NNE
ARGOS 3.9 22:43:01 10° S 22:48:16 50° W 22:53:33 10° NNW
Cosmos 1486 Rocket 4.0 22:44:48 10° S 22:49:59 64° ESE 22:55:16 10° NNE
Cosmos 841 Rocket 3.5 22:44:45 10° NNW 22:50:03 81° ENE 22:53:48 19° SSE
Cosmos 1455 3.3 22:47:07 10° N 22:50:37 31° ENE 22:52:33 20° ESE
Cosmos 1943 3.2 22:45:05 10° NNW 22:50:46 89° ENE 22:54:57 19° SSE
SL-16 R/B 4.4 22:48:03 10° WNW 22:51:39 17° W 22:55:15 10° SW
Cosmos 1763 Rocket 3.5 22:46:34 10° NNW 22:51:43 78° WSW 22:55:27 18° SSE
SPOT 5 3.7 22:47:03 10° S 22:51:44 48° W 22:56:43 10° NNW
Lacrosse 5 2.6 22:47:15 10° WNW 22:52:01 41° SW 22:55:19 18° SSE
CARTOSAT-1 3.6 22:52:19 21° SSE 22:55:09 68° ENE 22:59:28 10° N
SPOT 1/Viking Rocket 4.0 22:54:30 13° S 22:58:57 57° W 23:04:03 10° NNW
Cosmos 1328 Rocket 4.4 23:00:11 10° NNW 23:04:19 45° W 23:07:53 13° SSW
Abrixas rocket 2.9 23:02:09 10° W 23:05:11 37° SSW 23:06:04 30° S
Cosmos 1515 Rocket 4.1 23:06:03 10° NNW 23:10:17 54° W 23:13:24 17° SSW
Cosmos 2233 Rocket 4.0 23:04:31 10° N 23:10:47 83° W 23:15:24 19° S
Cosmos 1151 Rocket 3.2 23:06:29 10° NNW 23:10:53 69° W 23:13:43 21° S
Landsat 7 4.2 23:08:35 18° S 23:12:00 60° W 23:16:44 10° NNW
CZ-4C R/B 4.4 23:10:56 22° ESE 23:13:09 38° ENE 23:17:15 10° N
USA 234 3.2 23:06:53 10° NE 23:13:27 82° SE 23:20:01 10° SW
IGS 5A 3.5 23:11:56 25° S 23:14:21 81° W 23:18:32 10° NNW
H-2A R/B 2.0 23:13:53 26° SSE 23:16:17 86° ENE 23:20:33 10° NNW
CZ-2C R/B 4.3 23:13:20 10° NE 23:16:31 16° E 23:18:06 14° ESE
Cosmos 1743 Rocket 4.4 23:13:28 10° SSW 23:17:39 47° WNW 23:21:51 10° N
Cosmos 2228 Rocket 4.4 23:14:09 10° NNW 23:18:23 37° W 23:22:04 13° SSW
Cosmos 1703 3.2 23:22:24 25° S 23:24:40 87° W 23:28:42 10° N
Terra 2.1 23:24:00 22° S 23:26:57 61° WSW 23:31:41 10° NNW
CZ-4 R/B 3.8 23:24:25 10° NNE 23:29:17 67° ESE 23:31:53 27° S
Cosmos 1503 Rocket 3.9 23:32:17 19° SSW 23:36:03 83° ESE 23:41:15 10° NNE
SL-19 R/B 3.6 23:38:24 53° ESE 23:38:45 60° ENE 23:41:40 10° N
H-2A R/B 3.8 23:39:05 10° SSW 23:43:28 26° W 23:47:59 10° NW
Cosmos 304 Rocket 4.0 23:39:57 10° NNW 23:44:41 59° WSW 23:46:52 30° S
Cosmos 1626 3.1 23:44:38 20° SW 23:46:50 43° WNW 23:50:25 10° N
Cosmos 1513 Rocket 4.5 23:40:51 10° N 23:47:06 74° E 23:50:24 29° SSE
Cosmos 2058 4.1 23:44:53 15° SW 23:48:01 40° WNW 23:52:02 10° N
CZ-4B R/B 3.5 23:43:14 10° NNE 23:48:34 81° ESE 23:51:29 27° S
Cosmos 540 Rocket 3.7 23:46:06 10° NNW 23:51:12 63° WSW 23:53:35 31° S
Cosmos 2263 Rocket 2.6 23:47:44 10° SW 23:53:13 61° WNW 23:58:47 10° NNE
Cosmos 968 Rocket 4.0 23:53:13 32° SSE 23:54:56 42° ESE 23:59:55 10° NE
